SAS717 OPKC-OMAA

Flight info

Callsign SAS717
Flight time 1h 54m
Altitude 40000
Route MELOM A325 PARET A454 VUSET R462 MIXAM P899 ROVOS
Aircraft B736/M-SDE2E3FGHIRWXY/LB1

Departure

Time 2026-05-06 13:36
Airport Jinnah International Airport (OPKC)

Arrival

Time 2026-05-06 15:30
Airport Zayed International Airport (OMAA)
Time Latitude Longitude Altitude Speed Heading
2026-05-06 13:11 24.90205 67.16535 97 ft 0 kts 124°
2026-05-06 13:27 24.90209 67.16529 97 ft 2 kts 124°
2026-05-06 13:28 24.90218 67.16514 98 ft 2 kts 124°
2026-05-06 13:28 24.90230 67.16496 97 ft 4 kts 125°
2026-05-06 13:28 24.90245 67.16473 97 ft 4 kts 140°
2026-05-06 13:28 24.90269 67.16462 96 ft 4 kts 169°
2026-05-06 13:29 24.90293 67.16452 96 ft 4 kts 108°
2026-05-06 13:29 24.90294 67.16442 97 ft 0 kts 72°
2026-05-06 13:32 24.90297 67.16450 99 ft 3 kts 71°
2026-05-06 13:32 24.90311 67.16500 98 ft 10 kts 73°
2026-05-06 13:33 24.90334 67.16588 98 ft 14 kts 74°
2026-05-06 13:33 24.90361 67.16699 99 ft 16 kts 75°
2026-05-06 13:33 24.90391 67.16815 99 ft 15 kts 74°
2026-05-06 13:33 24.90420 67.16926 99 ft 15 kts 74°
2026-05-06 13:34 24.90459 67.17026 100 ft 14 kts 41°
2026-05-06 13:34 24.90551 67.17025 100 ft 14 kts 343°
2026-05-06 13:34 24.90640 67.16999 101 ft 9 kts 343°
2026-05-06 13:34 24.90641 67.16998 101 ft 0 kts 343°
2026-05-06 13:35 24.90644 67.16997 101 ft 3 kts 343°
2026-05-06 13:35 24.90673 67.16988 102 ft 5 kts 344°
2026-05-06 13:35 24.90707 67.16970 102 ft 8 kts 325°
2026-05-06 13:35 24.90727 67.16892 101 ft 16 kts 253°
2026-05-06 13:36 24.90665 67.16659 98 ft 63 kts 254°
2026-05-06 13:36 24.90485 67.15937 94 ft 129 kts 255°
2026-05-06 13:36 24.90175 67.14841 235 ft 166 kts 248°
2026-05-06 13:36 24.89804 67.13626 968 ft 163 kts 254°
2026-05-06 13:37 24.89418 67.12512 1857 ft 153 kts 233°
2026-05-06 13:37 24.88641 67.11641 2346 ft 170 kts 225°
2026-05-06 13:37 24.87735 67.10649 2562 ft 197 kts 226°
2026-05-06 13:37 24.86727 67.09533 2744 ft 222 kts 227°
2026-05-06 13:38 24.85606 67.08283 3250 ft 232 kts 226°
2026-05-06 13:38 24.84467 67.07005 3948 ft 232 kts 227°
2026-05-06 13:38 24.83325 67.05716 4566 ft 239 kts 229°
2026-05-06 13:38 24.82137 67.04370 5068 ft 250 kts 229°
2026-05-06 13:39 24.80908 67.02977 5632 ft 258 kts 227°
2026-05-06 13:39 24.79643 67.01542 6225 ft 265 kts 229°
2026-05-06 13:39 24.78472 66.99975 6876 ft 266 kts 247°
2026-05-06 13:39 24.77998 66.97998 7332 ft 276 kts 266°
2026-05-06 13:40 24.77845 66.95846 7837 ft 287 kts 270°
2026-05-06 13:40 24.77748 66.93657 8550 ft 292 kts 270°
2026-05-06 13:40 24.77660 66.91418 9364 ft 294 kts 271°
2026-05-06 13:40 24.77570 66.89157 10107 ft 300 kts 272°
2026-05-06 13:41 24.77475 66.86762 10346 ft 326 kts 271°
2026-05-06 13:41 24.77367 66.84186 10660 ft 345 kts 271°
2026-05-06 13:41 24.77246 66.81521 11299 ft 351 kts 270°
2026-05-06 13:41 24.77116 66.78823 12093 ft 353 kts 270°
2026-05-06 13:42 24.76983 66.76137 12889 ft 357 kts 270°
2026-05-06 13:42 24.76847 66.73397 13672 ft 360 kts 270°
2026-05-06 13:42 24.76708 66.70633 14403 ft 363 kts 270°
2026-05-06 13:42 24.76567 66.67856 15193 ft 364 kts 270°
2026-05-06 13:43 24.76425 66.65068 15972 ft 366 kts 270°
2026-05-06 13:43 24.76282 66.62261 16737 ft 369 kts 270°
2026-05-06 13:43 24.76137 66.59426 17493 ft 371 kts 270°
2026-05-06 13:43 24.75992 66.56580 18200 ft 374 kts 270°
2026-05-06 13:44 24.75844 66.53710 18868 ft 376 kts 270°
2026-05-06 13:44 24.75696 66.50835 19499 ft 378 kts 270°
2026-05-06 13:44 24.75546 66.47935 20113 ft 381 kts 270°
2026-05-06 13:44 24.75394 66.45016 20711 ft 384 kts 271°
2026-05-06 13:45 24.75241 66.42065 21303 ft 387 kts 271°
2026-05-06 13:45 24.74929 66.36114 22445 ft 392 kts 271°
2026-05-06 13:45 24.74772 66.33144 22981 ft 395 kts 271°
2026-05-06 13:46 24.74612 66.30117 23490 ft 398 kts 271°
2026-05-06 13:46 24.74450 66.27074 23921 ft 400 kts 271°
2026-05-06 13:46 24.74286 66.24015 24379 ft 401 kts 271°
2026-05-06 13:46 24.74121 66.20949 24833 ft 402 kts 271°
2026-05-06 13:47 24.73956 66.17870 25264 ft 404 kts 271°
2026-05-06 13:47 24.73788 66.14770 25692 ft 406 kts 271°
2026-05-06 13:47 24.73620 66.11664 26109 ft 408 kts 271°
2026-05-06 13:47 24.73450 66.08547 26519 ft 410 kts 271°
2026-05-06 13:48 24.73279 66.05413 26918 ft 411 kts 271°
2026-05-06 13:48 24.73106 66.02264 27315 ft 413 kts 271°
2026-05-06 13:48 24.72933 65.99107 27706 ft 415 kts 271°
2026-05-06 13:48 24.72757 65.95936 28077 ft 416 kts 271°
2026-05-06 13:49 24.72580 65.92741 28433 ft 418 kts 271°
2026-05-06 13:49 24.72402 65.89535 28781 ft 420 kts 271°
2026-05-06 13:49 24.72224 65.86361 29127 ft 422 kts 271°
2026-05-06 13:49 24.72043 65.83131 29470 ft 424 kts 271°
2026-05-06 13:50 24.71860 65.79886 29805 ft 425 kts 270°
2026-05-06 13:50 24.71676 65.76634 30080 ft 427 kts 270°
2026-05-06 13:50 24.71491 65.73363 30330 ft 429 kts 270°
2026-05-06 13:50 24.71304 65.70084 30567 ft 431 kts 270°
2026-05-06 13:51 24.71116 65.66791 30807 ft 433 kts 270°
2026-05-06 13:51 24.70925 65.63478 31050 ft 434 kts 270°
2026-05-06 13:51 24.70734 65.60165 31358 ft 434 kts 270°
2026-05-06 13:51 24.70541 65.56852 31701 ft 433 kts 270°
2026-05-06 13:52 24.70349 65.53552 32047 ft 432 kts 270°
2026-05-06 13:52 24.70156 65.50255 32416 ft 431 kts 269°
2026-05-06 13:52 24.69963 65.46963 32776 ft 431 kts 269°
2026-05-06 13:52 24.69770 65.43674 33137 ft 430 kts 269°
2026-05-06 13:53 24.69579 65.40429 33510 ft 429 kts 269°
2026-05-06 13:53 24.69385 65.37155 33862 ft 429 kts 269°
2026-05-06 13:53 24.69191 65.33884 34195 ft 428 kts 269°
2026-05-06 13:53 24.68996 65.30615 34534 ft 427 kts 269°
2026-05-06 13:54 24.68801 65.27355 34848 ft 428 kts 269°
2026-05-06 13:54 24.68606 65.24091 35142 ft 428 kts 269°
2026-05-06 13:54 24.68409 65.20827 35474 ft 427 kts 268°
2026-05-06 13:54 24.68212 65.17572 35810 ft 426 kts 268°
2026-05-06 13:55 24.68015 65.14323 36108 ft 426 kts 268°
2026-05-06 13:55 24.67817 65.11076 36399 ft 426 kts 268°
2026-05-06 13:55 24.67618 65.07826 36695 ft 425 kts 268°
2026-05-06 13:55 24.67420 65.04589 37036 ft 423 kts 268°
2026-05-06 13:56 24.67221 65.01377 37465 ft 419 kts 268°
2026-05-06 13:56 24.67024 64.98183 37758 ft 419 kts 268°
2026-05-06 13:56 24.66826 64.94982 37926 ft 420 kts 268°
2026-05-06 13:56 24.66627 64.91775 38134 ft 421 kts 268°
2026-05-06 13:57 24.66427 64.88569 38419 ft 420 kts 267°
2026-05-06 13:57 24.66227 64.85373 38666 ft 418 kts 267°
2026-05-06 13:57 24.66027 64.82189 38870 ft 418 kts 267°
2026-05-06 13:57 24.65828 64.79042 39039 ft 418 kts 267°
2026-05-06 13:58 24.65624 64.75814 39211 ft 418 kts 267°
2026-05-06 13:58 24.65424 64.72664 39412 ft 417 kts 267°
2026-05-06 13:58 24.65221 64.69477 39617 ft 416 kts 267°
2026-05-06 13:58 24.65018 64.66304 39769 ft 417 kts 267°
2026-05-06 13:59 24.64608 64.59912 39785 ft 419 kts 267°
2026-05-06 13:59 24.64197 64.53550 39785 ft 416 kts 267°
2026-05-06 14:00 24.63785 64.47231 39786 ft 413 kts 267°
2026-05-06 14:00 24.63443 64.41999 39788 ft 411 kts 267°
2026-05-06 14:01 24.63030 64.35736 39782 ft 410 kts 267°
2026-05-06 14:01 24.62615 64.29472 39787 ft 411 kts 267°
2026-05-06 14:02 24.62197 64.23199 39785 ft 412 kts 267°
2026-05-06 14:02 24.61775 64.16898 39800 ft 414 kts 267°
2026-05-06 14:03 24.61350 64.10603 39783 ft 416 kts 267°
2026-05-06 14:03 24.60917 64.04239 39779 ft 418 kts 266°
2026-05-06 14:04 24.60480 63.97845 39781 ft 420 kts 266°
2026-05-06 14:04 24.60038 63.91424 39782 ft 421 kts 266°
2026-05-06 14:05 24.59596 63.85034 39784 ft 422 kts 266°
2026-05-06 14:05 24.59147 63.78596 39783 ft 422 kts 266°
2026-05-06 14:06 24.58696 63.72158 39772 ft 422 kts 266°
2026-05-06 14:06 24.58243 63.65731 39779 ft 421 kts 266°
2026-05-06 14:07 24.57788 63.59316 39784 ft 421 kts 266°
2026-05-06 14:07 24.57331 63.52912 39784 ft 420 kts 266°
2026-05-06 14:08 24.56872 63.46522 39785 ft 419 kts 266°
2026-05-06 14:08 24.56412 63.40148 39781 ft 418 kts 266°
2026-05-06 14:09 24.55952 63.33822 39785 ft 418 kts 266°
2026-05-06 14:09 24.55487 63.27463 39784 ft 417 kts 266°
2026-05-06 14:10 24.55020 63.21107 39793 ft 417 kts 266°
2026-05-06 14:10 24.54550 63.14744 39787 ft 417 kts 266°
2026-05-06 14:11 24.54077 63.08381 39785 ft 418 kts 266°
2026-05-06 14:11 24.53601 63.02014 39787 ft 418 kts 266°
2026-05-06 14:12 24.53124 62.95679 39796 ft 419 kts 266°
2026-05-06 14:12 24.52642 62.89299 39783 ft 419 kts 266°
2026-05-06 14:13 24.52155 62.82901 39790 ft 420 kts 266°
2026-05-06 14:13 24.51666 62.76508 39789 ft 420 kts 265°
2026-05-06 14:14 24.51174 62.70112 39789 ft 421 kts 265°
2026-05-06 14:14 24.50679 62.63702 39786 ft 421 kts 265°
2026-05-06 14:15 24.50180 62.57290 39787 ft 421 kts 266°
2026-05-06 14:15 24.49682 62.50926 39780 ft 421 kts 266°
2026-05-06 14:16 24.49178 62.44512 39785 ft 421 kts 265°
2026-05-06 14:16 24.48672 62.38106 39792 ft 420 kts 265°
2026-05-06 14:17 24.48163 62.31705 39782 ft 420 kts 265°
2026-05-06 14:17 24.47657 62.25369 39785 ft 420 kts 265°
2026-05-06 14:18 24.47144 62.18986 39785 ft 419 kts 265°
2026-05-06 14:18 24.46630 62.12613 39784 ft 419 kts 265°
2026-05-06 14:19 24.46112 62.06234 39785 ft 419 kts 265°
2026-05-06 14:19 24.45591 61.99857 39793 ft 419 kts 265°
2026-05-06 14:20 24.45069 61.93489 39785 ft 419 kts 265°
2026-05-06 14:20 24.44547 61.87158 39783 ft 419 kts 265°
2026-05-06 14:21 24.44018 61.80776 39786 ft 419 kts 265°
2026-05-06 14:21 24.43488 61.74403 39790 ft 419 kts 265°
2026-05-06 14:22 24.42954 61.68030 39784 ft 419 kts 265°
2026-05-06 14:22 24.42418 61.61656 39785 ft 420 kts 265°
2026-05-06 14:23 24.41878 61.55277 39784 ft 420 kts 265°
2026-05-06 14:23 24.41339 61.48930 39785 ft 420 kts 265°
2026-05-06 14:24 24.40793 61.42538 39784 ft 420 kts 265°
2026-05-06 14:24 24.40245 61.36149 39785 ft 420 kts 265°
2026-05-06 14:25 24.39395 61.29802 39793 ft 421 kts 258°
2026-05-06 14:25 24.38066 61.23544 39781 ft 421 kts 257°
2026-05-06 14:26 24.36714 61.17329 39782 ft 421 kts 258°
2026-05-06 14:26 24.35383 61.11074 39794 ft 421 kts 258°
2026-05-06 14:27 24.34069 61.04813 39790 ft 421 kts 258°
2026-05-06 14:27 24.32758 60.98547 39785 ft 421 kts 258°
2026-05-06 14:28 24.31446 60.92288 39785 ft 421 kts 258°
2026-05-06 14:28 24.30130 60.86028 39786 ft 421 kts 258°
2026-05-06 14:29 24.28820 60.79805 39786 ft 421 kts 258°
2026-05-06 14:29 24.27501 60.73554 39781 ft 421 kts 258°
2026-05-06 14:30 24.26177 60.67298 39789 ft 421 kts 258°
2026-05-06 14:30 24.24853 60.61050 39792 ft 421 kts 258°
2026-05-06 14:31 24.23525 60.54803 39790 ft 421 kts 258°
2026-05-06 14:31 24.22194 60.48550 39792 ft 421 kts 258°
2026-05-06 14:32 24.20869 60.42339 39798 ft 421 kts 258°
2026-05-06 14:32 24.19534 60.36093 39792 ft 421 kts 258°
2026-05-06 14:33 24.18195 60.29844 39792 ft 421 kts 258°
2026-05-06 14:33 24.16852 60.23590 39798 ft 421 kts 258°
2026-05-06 14:34 24.15509 60.17345 39797 ft 421 kts 258°
2026-05-06 14:34 24.14163 60.11104 39795 ft 421 kts 257°
2026-05-06 14:35 24.12823 60.04903 39803 ft 421 kts 257°
2026-05-06 14:35 24.11472 59.98662 39797 ft 421 kts 257°
2026-05-06 14:36 24.10118 59.92423 39798 ft 421 kts 257°
2026-05-06 14:36 24.08763 59.86188 39791 ft 421 kts 257°
2026-05-06 14:37 24.07405 59.79956 39799 ft 421 kts 257°
2026-05-06 14:37 24.06052 59.73758 39799 ft 421 kts 257°
2026-05-06 14:38 24.04687 59.67519 39799 ft 421 kts 257°
2026-05-06 14:38 24.03318 59.61272 39801 ft 422 kts 257°
2026-05-06 14:39 24.01949 59.55038 39801 ft 422 kts 257°
2026-05-06 14:39 24.00576 59.48800 39798 ft 422 kts 257°
2026-05-06 14:40 23.99199 59.42559 39793 ft 422 kts 257°
2026-05-06 14:40 23.97818 59.36307 39797 ft 422 kts 257°
2026-05-06 14:41 23.96445 59.30106 39796 ft 422 kts 257°
2026-05-06 14:41 23.95061 59.23870 39794 ft 422 kts 257°
2026-05-06 14:42 23.93676 59.17634 39794 ft 422 kts 257°
2026-05-06 14:42 23.92312 59.11395 39791 ft 422 kts 258°
2026-05-06 14:43 23.91121 59.05115 39792 ft 422 kts 259°
2026-05-06 14:43 23.89966 58.98830 39782 ft 422 kts 259°
2026-05-06 14:44 23.88791 58.92548 39788 ft 422 kts 259°
2026-05-06 14:45 23.87009 58.83163 39789 ft 422 kts 259°
2026-05-06 14:45 23.85811 58.76889 39785 ft 422 kts 259°
2026-05-06 14:46 23.84610 58.70609 39785 ft 422 kts 259°
2026-05-06 14:46 23.83405 58.64326 39783 ft 422 kts 259°
2026-05-06 14:47 23.82199 58.58051 39786 ft 422 kts 259°
2026-05-06 14:47 23.81194 58.52834 39784 ft 422 kts 259°
2026-05-06 14:48 23.79984 58.46562 39784 ft 422 kts 258°
2026-05-06 14:48 23.78772 58.40295 39781 ft 422 kts 258°
2026-05-06 14:49 23.77556 58.34022 39777 ft 422 kts 258°
2026-05-06 14:49 23.76338 58.27754 39776 ft 422 kts 258°
2026-05-06 14:50 23.75126 58.21527 39777 ft 422 kts 258°
2026-05-06 14:50 23.73903 58.15262 39779 ft 422 kts 258°
2026-05-06 14:51 23.72679 58.09002 39783 ft 422 kts 258°
2026-05-06 14:51 23.71453 58.02746 39794 ft 421 kts 258°
2026-05-06 14:52 23.70226 57.96484 39790 ft 421 kts 259°
2026-05-06 14:52 23.69981 57.90129 39795 ft 421 kts 275°
2026-05-06 14:53 23.71169 57.83875 39802 ft 421 kts 283°
2026-05-06 14:53 23.72591 57.77668 39809 ft 422 kts 283°
2026-05-06 14:54 23.73970 57.71482 39813 ft 422 kts 282°
2026-05-06 14:54 23.75334 57.65247 39810 ft 422 kts 282°
2026-05-06 14:55 23.76692 57.59017 39810 ft 422 kts 282°
2026-05-06 14:55 23.78047 57.52782 39812 ft 422 kts 282°
2026-05-06 14:56 23.79394 57.46551 39811 ft 421 kts 282°
2026-05-06 14:56 23.80739 57.40315 39810 ft 421 kts 282°
2026-05-06 14:57 23.82078 57.34095 39816 ft 421 kts 282°
2026-05-06 14:57 23.83415 57.27872 39819 ft 421 kts 282°
2026-05-06 14:58 23.84751 57.21641 39819 ft 421 kts 282°
2026-05-06 14:58 23.85417 57.18530 39707 ft 423 kts 282°
2026-05-06 14:58 23.86084 57.15411 39193 ft 428 kts 282°
2026-05-06 14:58 23.86760 57.12247 38600 ft 427 kts 282°
2026-05-06 14:59 23.87435 57.09084 37890 ft 426 kts 282°
2026-05-06 14:59 23.88107 57.05932 37186 ft 425 kts 282°
2026-05-06 14:59 23.88777 57.02787 36513 ft 424 kts 282°
2026-05-06 14:59 23.89444 56.99654 35833 ft 423 kts 282°
2026-05-06 15:00 23.90105 56.96543 35334 ft 418 kts 282°
2026-05-06 15:00 23.90759 56.93465 34847 ft 413 kts 282°
2026-05-06 15:00 23.91405 56.90422 34364 ft 409 kts 282°
2026-05-06 15:00 23.92046 56.87393 33880 ft 405 kts 282°
2026-05-06 15:01 23.92678 56.84408 33339 ft 402 kts 282°
2026-05-06 15:01 23.93297 56.81484 32847 ft 398 kts 282°
2026-05-06 15:01 23.93916 56.78553 32362 ft 394 kts 282°
2026-05-06 15:01 23.94538 56.75606 31875 ft 391 kts 282°
2026-05-06 15:02 23.95138 56.72760 31440 ft 387 kts 282°
2026-05-06 15:02 23.95742 56.69892 30990 ft 385 kts 282°
2026-05-06 15:02 23.96341 56.67045 30527 ft 382 kts 282°
2026-05-06 15:02 23.96933 56.64230 30116 ft 379 kts 282°
2026-05-06 15:03 23.97521 56.61428 29615 ft 377 kts 282°
2026-05-06 15:03 23.98105 56.58641 29133 ft 374 kts 282°
2026-05-06 15:03 23.98685 56.55877 28657 ft 371 kts 282°
2026-05-06 15:03 23.99258 56.53138 28194 ft 368 kts 282°
2026-05-06 15:04 23.99826 56.50424 27752 ft 365 kts 282°
2026-05-06 15:04 24.00384 56.47753 27318 ft 362 kts 282°
2026-05-06 15:04 24.00943 56.45080 26881 ft 359 kts 282°
2026-05-06 15:04 24.01496 56.42424 26452 ft 357 kts 282°
2026-05-06 15:05 24.02046 56.39788 26032 ft 355 kts 282°
2026-05-06 15:05 24.02594 56.37156 25612 ft 353 kts 283°
2026-05-06 15:05 24.03139 56.34538 25195 ft 352 kts 283°
2026-05-06 15:05 24.03681 56.31932 24770 ft 351 kts 283°
2026-05-06 15:06 24.04224 56.29318 24323 ft 351 kts 283°
2026-05-06 15:06 24.04832 56.26738 23916 ft 350 kts 289°
2026-05-06 15:06 24.05672 56.24248 23543 ft 348 kts 291°
2026-05-06 15:06 24.06549 56.21784 23083 ft 347 kts 291°
2026-05-06 15:07 24.07428 56.19335 22648 ft 345 kts 291°
2026-05-06 15:07 24.08286 56.16932 22217 ft 343 kts 291°
2026-05-06 15:07 24.09146 56.14507 21800 ft 341 kts 291°
2026-05-06 15:07 24.10000 56.12091 21395 ft 339 kts 291°
2026-05-06 15:08 24.10846 56.09682 20974 ft 338 kts 291°
2026-05-06 15:08 24.11684 56.07292 20575 ft 336 kts 292°
2026-05-06 15:08 24.12519 56.04905 20173 ft 335 kts 291°
2026-05-06 15:08 24.13350 56.02528 19778 ft 333 kts 292°
2026-05-06 15:09 24.14176 56.00163 19384 ft 332 kts 292°
2026-05-06 15:09 24.15000 55.97800 18969 ft 332 kts 292°
2026-05-06 15:09 24.15825 55.95437 18556 ft 332 kts 292°
2026-05-06 15:09 24.16650 55.93070 18153 ft 332 kts 292°
2026-05-06 15:10 24.17476 55.90699 17701 ft 332 kts 292°
2026-05-06 15:10 24.18298 55.88337 17276 ft 331 kts 292°
2026-05-06 15:10 24.19104 55.86022 16883 ft 329 kts 292°
2026-05-06 15:10 24.19917 55.83682 16480 ft 328 kts 292°
2026-05-06 15:11 24.20738 55.81323 16082 ft 326 kts 292°
2026-05-06 15:11 24.21506 55.79016 15739 ft 324 kts 288°
2026-05-06 15:11 24.22128 55.76641 15494 ft 325 kts 285°
2026-05-06 15:11 24.22703 55.74224 15230 ft 331 kts 285°
2026-05-06 15:12 24.23284 55.71761 14967 ft 335 kts 285°
2026-05-06 15:12 24.23877 55.69280 14696 ft 338 kts 285°
2026-05-06 15:12 24.24481 55.66794 14425 ft 338 kts 285°
2026-05-06 15:12 24.25090 55.64308 14159 ft 337 kts 286°
2026-05-06 15:13 24.25698 55.61833 13893 ft 333 kts 286°
2026-05-06 15:13 24.26266 55.59397 13707 ft 325 kts 283°
2026-05-06 15:13 24.26744 55.56983 13498 ft 323 kts 282°
2026-05-06 15:13 24.27197 55.54573 13239 ft 322 kts 282°
2026-05-06 15:14 24.27648 55.52165 12986 ft 322 kts 282°
2026-05-06 15:14 24.28096 55.49794 12741 ft 323 kts 282°
2026-05-06 15:14 24.28555 55.47382 12486 ft 323 kts 282°
2026-05-06 15:14 24.29017 55.44968 12232 ft 324 kts 282°
2026-05-06 15:15 24.29483 55.42547 11982 ft 324 kts 282°
2026-05-06 15:15 24.29947 55.40131 11720 ft 324 kts 281°
2026-05-06 15:15 24.30408 55.37727 11463 ft 319 kts 282°
2026-05-06 15:15 24.30897 55.35379 11197 ft 313 kts 285°
2026-05-06 15:16 24.31554 55.33130 10955 ft 307 kts 289°
2026-05-06 15:16 24.32258 55.30932 10699 ft 305 kts 289°
2026-05-06 15:16 24.32963 55.28739 10482 ft 305 kts 289°
2026-05-06 15:16 24.33657 55.26539 10248 ft 304 kts 288°
2026-05-06 15:17 24.34335 55.24361 10000 ft 299 kts 288°
2026-05-06 15:17 24.34994 55.22218 9761 ft 294 kts 288°
2026-05-06 15:17 24.35641 55.20110 9511 ft 289 kts 288°
2026-05-06 15:17 24.36278 55.18030 9272 ft 286 kts 287°
2026-05-06 15:18 24.36782 55.15957 8995 ft 284 kts 271°
2026-05-06 15:18 24.36366 55.13890 8618 ft 279 kts 238°
2026-05-06 15:18 24.35074 55.12340 8270 ft 275 kts 215°
2026-05-06 15:18 24.33386 55.11400 7912 ft 270 kts 197°
2026-05-06 15:19 24.31602 55.10792 7422 ft 268 kts 195°
2026-05-06 15:19 24.29825 55.10204 7030 ft 263 kts 196°
2026-05-06 15:19 24.28123 55.09631 6842 ft 250 kts 196°
2026-05-06 15:19 24.26491 55.09075 6577 ft 241 kts 196°
2026-05-06 15:20 24.24935 55.08460 6273 ft 237 kts 209°
2026-05-06 15:20 24.23624 55.07385 5961 ft 233 kts 218°
2026-05-06 15:20 24.22365 55.06280 5580 ft 232 kts 217°
2026-05-06 15:20 24.21100 55.05189 5207 ft 231 kts 217°
2026-05-06 15:21 24.20038 55.03894 4833 ft 232 kts 244°
2026-05-06 15:21 24.19775 55.02165 4444 ft 235 kts 277°
2026-05-06 15:21 24.20352 55.00506 4082 ft 235 kts 302°
2026-05-06 15:21 24.21333 54.99056 4039 ft 240 kts 307°
2026-05-06 15:22 24.22407 54.97620 3931 ft 247 kts 309°
2026-05-06 15:22 24.23506 54.96160 3641 ft 249 kts 308°
2026-05-06 15:22 24.24592 54.94686 3380 ft 247 kts 308°
2026-05-06 15:22 24.25645 54.93233 3137 ft 246 kts 307°
2026-05-06 15:23 24.26702 54.91758 2863 ft 246 kts 307°
2026-05-06 15:23 24.27750 54.90292 2636 ft 241 kts 308°
2026-05-06 15:23 24.28790 54.88889 2357 ft 233 kts 308°
2026-05-06 15:23 24.29781 54.87526 2146 ft 223 kts 307°
2026-05-06 15:24 24.30704 54.86227 2005 ft 206 kts 307°
2026-05-06 15:24 24.31537 54.85047 1943 ft 185 kts 307°
2026-05-06 15:24 24.32273 54.84003 1920 ft 163 kts 307°
2026-05-06 15:24 24.32937 54.83060 1958 ft 149 kts 307°
2026-05-06 15:25 24.33555 54.82181 1939 ft 144 kts 307°
2026-05-06 15:25 24.34160 54.81322 1945 ft 140 kts 308°
2026-05-06 15:25 24.34740 54.80497 1938 ft 134 kts 308°
2026-05-06 15:25 24.35300 54.79700 1926 ft 130 kts 309°
2026-05-06 15:26 24.35876 54.78886 1958 ft 138 kts 309°
2026-05-06 15:26 24.36462 54.78054 1948 ft 137 kts 308°
2026-05-06 15:26 24.37040 54.77234 1949 ft 135 kts 309°
2026-05-06 15:26 24.37613 54.76420 1943 ft 135 kts 309°
2026-05-06 15:27 24.38198 54.75590 1856 ft 139 kts 309°
2026-05-06 15:27 24.38786 54.74756 1677 ft 139 kts 309°
2026-05-06 15:27 24.39371 54.73927 1519 ft 136 kts 309°
2026-05-06 15:27 24.39944 54.73112 1343 ft 133 kts 310°
2026-05-06 15:28 24.40508 54.72313 1180 ft 131 kts 310°
2026-05-06 15:28 24.41068 54.71520 1009 ft 138 kts 310°
2026-05-06 15:28 24.41643 54.70700 858 ft 134 kts 312°
2026-05-06 15:28 24.42195 54.69917 705 ft 127 kts 311°
2026-05-06 15:29 24.42748 54.69138 581 ft 134 kts 310°
2026-05-06 15:29 24.43323 54.68321 414 ft 134 kts 309°
2026-05-06 15:29 24.43881 54.67527 279 ft 131 kts 308°
2026-05-06 15:29 24.44427 54.66726 117 ft 128 kts 312°
2026-05-06 15:30 24.44951 54.66017 75 ft 106 kts 309°
2026-05-06 15:30 24.45335 54.65486 75 ft 72 kts 308°
2026-05-06 15:30 24.45580 54.65126 68 ft 52 kts 300°
2026-05-06 15:30 24.45651 54.64831 63 ft 25 kts 278°
2026-05-06 15:31 24.45654 54.64811 73 ft 0 kts 278°
2026-05-06 15:33 24.45655 54.64802 60 ft 2 kts 278°
2026-05-06 15:33 24.45659 54.64773 73 ft 5 kts 278°
2026-05-06 15:33 24.45664 54.64741 73 ft 7 kts 280°
2026-05-06 15:33 24.45687 54.64679 69 ft 10 kts 301°
2026-05-06 15:34 24.45688 54.64601 67 ft 12 kts 227°
2026-05-06 15:34 24.45612 54.64622 73 ft 14 kts 129°
2026-05-06 15:34 24.45547 54.64715 67 ft 16 kts 129°
2026-05-06 15:34 24.45471 54.64820 66 ft 19 kts 128°
2026-05-06 15:35 24.45388 54.64939 69 ft 21 kts 127°
2026-05-06 15:35 24.45297 54.65069 72 ft 22 kts 127°
2026-05-06 15:35 24.45201 54.65206 73 ft 18 kts 129°
2026-05-06 15:35 24.45089 54.65188 64 ft 19 kts 217°
2026-05-06 15:36 24.44973 54.65093 74 ft 21 kts 217°
2026-05-06 15:36 24.44916 54.65012 75 ft 11 kts 301°
2026-05-06 15:36 24.44951 54.64961 73 ft 0 kts 302°